Regional Weather Roundup
Issued by NWS Midland/Odessa, TX

Home | Current Version | Previous Version | Text Only | Print | Product List | Glossary On
Versions: 1 2 3 4 5 6 7 8 9 10 11 12 13 14 15 16 17 18 19 20 21 22 23 24 25 26 27 28 29 30 31 32 33 34 35 36 37 38 39 40 41 42 43 44 45 46 47 48 49 50
836
ASUS44 KMAF 262001
RWRMAF
MIDLAND AREA WEATHER ROUNDUP
NATIONAL WEATHER SERVICE MIDLAND TX
300 PM CDT TUE JUL 26 2016

...IN SOUTHWEST TEXAS AND SOUTHEAST NEW MEXICO...

CITY           SKY/WX    TMP DP  RH WIND       PRES   REMARKS
ALPINE         MOSUNNY   90  54  28 E5G18     30.15F
ANDREWS        FAIR      94  60  31 NE9       30.03F
ARTESIA        SUNNY     90  61  37 SE9       30.06F
BIG SPRING     SUNNY     93  62  34 NE8G17    30.02F
CARLSBAD       CLOUDY    91  60  35 VRB6      30.03F
DRYDEN           N/A     99  61  28 NE15      29.91F
FORT STOCKTON  MOSUNNY   96  61  31 NE7       29.99F
GUAD PASS      PTSUNNY   81  53  37 N13       30.21F
HOBBS          PTSUNNY   90  57  33 E10       30.08F
MARFA          MOSUNNY   90  55  30 E15G21    30.14F
MIDLAND AIRPK  MOSUNNY   97  58  27 E5G17     30.01F
MIDLAND INTL   SUNNY     97  59  28 E13G18    30.00F
ODESSA         SUNNY     96  60  30 E15G23    30.02F
PECOS          CLOUDY    96  60  30 CALM      29.97F
PRESIDIO       FAIR     100  52  20 N6G22     29.94F
SEMINOLE       PTSUNNY   91  56  30 E9        30.06F
SNYDER           N/A     93  64  38 NE17G29   30.01F
WINK           CLOUDY    92  61  35 SE21      29.98F
$$
...OTHER STATIONS IN TEXAS...

CITY           SKY/WX    TMP DP  RH WIND       PRES   REMARKS
ABILENE        MOSUNNY   95  65  37 E12G17    29.97F
AMARILLO       SUNNY     95  55  26 NE9       30.06F
AUSTIN         CLOUDY    90  73  57 S7        29.90F
BROWNSVILLE    MOSUNNY   95  72  47 S22G28    29.88F HX 103
CORPUS CHRISTI CLOUDY    89  76  65 E15G22    29.88F HX 100
DALLAS FTW     PTSUNNY   95  69  42 VRB5      29.90F HX 100
DEL RIO        CLOUDY    85  68  56 N16G31    29.91R
EL PASO        MOSUNNY   94  54  25 VRB5      30.05F
HOUSTON INT    PTSUNNY   82  74  76 S10       29.92S
LUBBOCK        MOSUNNY   95  58  28 E8G16     30.04F
SAN ANGELO     SUNNY     97  63  32 NE13G22   29.95F
SAN ANTONIO    LGT RAIN  79  72  79 SE14      29.95S
WACO           MOSUNNY   94  70  45 NE8       29.91F HX 100
WICHITA FALLS  NOT AVBL
$$
...OTHER LOCATIONS IN NEW MEXICO...

CITY           SKY/WX    TMP DP  RH WIND       PRES   REMARKS
ALAMAGORDO     SUNNY     90  50  25 SW3       30.10F
ALBUQUERQUE    CLOUDY    87  53  31 CALM      30.18F
CANNON AFB     SUNNY     88  59  37 VRB6      30.12F
CLOVIS         CLOUDY    90  57  33 SE8       30.12F
HOLLOMAN AFB   SUNNY     90  52  27 W1        30.07F
ROSWELL        SUNNY     91  59  33 MISG      30.07F
RUIDOSO          N/A     81  48  32 N9G16     30.31F
SANTA FE       MOSUNNY   87  49  26 S7        30.21F
TRUTH OR CONSE MOSUNNY   90  53  28 S8        30.11F
TUCUMCARI      SUNNY     92  54  27 SW8       30.08F
$$




USA.gov is the U.S. government's official web portal to all federal, state and local government web resources and services.